Lake Harding Weather Center

Moon Phase Calendar



Lake Harding Water Level
Online Cameras

 


      

Current Conditions in Valley
3/4/2021 7:47:33 PM

61°F
Feels Like 56
Clear
Humidity
50%
Pressure
30.03"
Wind
5.1 mph (NNW)
Dew Point
42°F
UV Index
0/10 (Low)
Visibility
6 mi

Hourly Forecast

Date & Time Thu, Mar 4
2:00 PM
Thu, Mar 4
8:00 PM
Fri, Mar 5
2:00 AM
Fri, Mar 5
8:00 AM
Fri, Mar 5
2:00 PM
Fri, Mar 5
8:00 PM
Sat, Mar 6
2:00 AM
Sat, Mar 6
8:00 AM
Sat, Mar 6
2:00 PM
Sat, Mar 6
8:00 PM
Sun, Mar 7
2:00 AM
Sun, Mar 7
8:00 AM
Sun, Mar 7
2:00 PM
Sun, Mar 7
8:00 PM
Mon, Mar 8
2:00 AM
Mon, Mar 8
8:00 AM
Mon, Mar 8
2:00 PM
Mon, Mar 8
8:00 PM
Tue, Mar 9
2:00 AM
Tue, Mar 9
8:00 AM
Tue, Mar 9
4:00 PM
Tue, Mar 9
10:00 PM
Wed, Mar 10
4:00 AM
Wed, Mar 10
10:00 AM
Wed, Mar 10
4:00 PM
Wed, Mar 10
10:00 PM
Thu, Mar 11
4:00 AM
Thu, Mar 11
10:00 AM
Thu, Mar 11
4:00 PM
Thu, Mar 11
10:00 PM
Fri, Mar 12
4:00 AM
Fri, Mar 12
10:00 AM
Fri, Mar 12
4:00 PM
Fri, Mar 12
10:00 PM
Sat, Mar 13
4:00 AM
Sat, Mar 13
10:00 AM
Condition
Clear

Clear

Clear

Clear

Clouds

Clouds

Clouds

Clouds

Clouds

Clear

Clear

Clear

Clear

Clouds

Clear

Clear

Clear

Clear

Clouds

Clear

Clouds

Clouds

Clouds

Clear

Clouds

Clouds

Clouds

Clouds

Clouds

Clouds

Clear

Clear

Clear

Clouds

Clouds

Clouds
Temperature 61°F58°F51°F47°F67°F55°F47°F48°F51°F45°F41°F41°F62°F49°F42°F42°F69°F51°F47°F47°F64°F52°F47°F59°F68°F57°F53°F63°F73°F59°F54°F66°F76°F62°F58°F69°F
Feels Like 55°F54°F45°F41°F61°F47°F40°F43°F44°F41°F35°F33°F55°F43°F36°F37°F66°F47°F42°F43°F58°F47°F42°F55°F64°F55°F51°F59°F70°F58°F53°F63°F74°F62°F59°F68°F
Cloudiness 1%1%0%1%99%100%100%100%100%0%0%0%0%32%0%0%0%0%100%0%97%99%13%0%81%58%91%92%79%11%0%0%0%46%100%100%
Visibility 6 mi6 mi6 mi6 mi6 mi6 mi6 mi6 mi6 mi6 mi6 mi6 mi6 mi6 mi6 mi6 mi6 mi6 mi6 mi6 mi6 mi6 mi6 mi6 mi6 mi6 mi6 mi6 mi6 mi6 mi6 mi6 mi6 mi6 mi6 mi6 mi
Precipitation 0%0%0%0%0%0%0%0%13%0%0%0%0%0%0%0%0%0%0%0%0%0%0%0%0%0%0%0%0%0%0%0%0%0%0%0%
Humidity 50%59%65%62%31%51%55%68%68%81%85%70%34%63%70%71%30%52%62%71%43%62%77%67%53%76%88%67%52%80%93%64%48%79%86%62%
Dew Point 42°F44°F39°F35°F35°F37°F30°F38°F41°F40°F37°F30°F34°F37°F33°F34°F36°F34°F35°F38°F41°F40°F40°F49°F51°F50°F50°F52°F55°F53°F52°F54°F56°F55°F54°F56°F
Pressure 30.03"30.03"30.09"30.12"30.06"30.09"30.12"30.18"30.15"30.18"30.27"30.36"30.33"30.39"30.45"30.5"30.47"30.47"30.5"30.53"30.45"30.47"30.45"30.45"30.33"30.39"30.36"30.36"30.21"30.27"30.24"30.3"30.18"30.21"30.21"30.24"
Wind Speed 7.1 mph5.1 mph6.1 mph5.1 mph4.3 mph9.3 mph5.8 mph4.4 mph7.5 mph3.9 mph4.5 mph6.7 mph5.4 mph5.5 mph4.2 mph4.1 mph0.8 mph2.1 mph2.7 mph3.6 mph6.8 mph4.4 mph4.8 mph7.5 mph7.9 mph4 mph3.6 mph8.8 mph9.1 mph4.7 mph3 mph7.1 mph6.6 mph1.6 mph0.4 mph5 mph
Wind
Direction

N
334°
NNW
13°
NNE
13°
NNE
46°
NE
20°
NNE
23°
NNE
26°
NNE
34°
NE
35°
NE

N
13°
NNE
21°
NNE

N
20°
NNE
26°
NNE
185°
S
188°
S
134°
SE
126°
SE
160°
SSE
129°
SE
133°
SE
155°
SSE
174°
S
136°
SE
134°
SE
171°
S
183°
S
163°
SSE
195°
SSW
187°
S
202°
SSW
181°
S
253°
WSW
126°
SE

Daily Forecast

Date High Low Precip. Humidity
Today
Mar 4

Clear
61 °F
44 °F
0%
50%
Friday
Mar 5

Clouds
67 °F
47 °F
0%
31%
Saturday
Mar 6

Clouds
51 °F
45 °F
13%
68%
Sunday
Mar 7

Clear
62 °F
41 °F
0%
34%
Monday
Mar 8

Clear
69 °F
42 °F
0%
30%
Tuesday
Mar 9

Clear
64 °F
47 °F
0%
71%
Wednesday
Mar 10

Clear
68 °F
47 °F
0%
67%
Thursday
Mar 11

Clouds
73 °F
53 °F
0%
67%
Friday
Mar 12

Clear
76 °F
54 °F
0%
64%
Saturday
Mar 13

Clouds
78 °F
58 °F
0%
62%
Sunday
Mar 14

Rain
68 °F
60 °F
62%
72%
Monday
Mar 15

Rain
59 °F
53 °F
92%
84%
Tuesday
Mar 16

Rain
59 °F
52 °F
100%
95%
Wednesday
Mar 17

Clear
62 °F
42 °F
0%
61%
Thursday
Mar 18

Clear
65 °F
43 °F
0%
52%
Friday
Mar 19

Clear
63 °F
38 °F
0%
51%


Temperature 8-14 Day Outlook



Precipitation 8-14 Day Outlook




Quick Links
Lake Harding News
Lake Harding Photos
Lake Harding Videos




About Us
Contact Us
Site Map
Search Site
Advertise With Us
   
www.LakeHardingNews.com
THE LAKE HARDING WEBSITE

Copyright 2021, Lakes Online
Privacy    |    Legal